TimeEDT,TemperatureF,Dew PointF,Humidity,Sea Level PressureIn,VisibilityMPH,Wind Direction,Wind SpeedMPH,Gust SpeedMPH,PrecipitationIn,Events,Conditions,WindDirDegrees,DateUTC
12:53 AM,70.0,63.0,78,30.17,10.0,East,9.2,-,0.01,,Overcast,80,2013-09-18 04:53:00
1:53 AM,69.1,62.1,78,30.17,10.0,East,6.9,-,N/A,,Overcast,80,2013-09-18 05:53:00
2:53 AM,69.1,62.1,78,30.16,10.0,East,5.8,-,N/A,,Overcast,90,2013-09-18 06:53:00
3:53 AM,68.0,62.1,81,30.16,10.0,ENE,4.6,-,N/A,,Unknown,70,2013-09-18 07:53:00
4:53 AM,66.9,61.0,81,30.16,-9999.0,ENE,4.6,-,N/A,,Unknown,60,2013-09-18 08:53:00
5:53 AM,66.9,61.0,81,30.16,10.0,ENE,5.8,-,N/A,,Unknown,60,2013-09-18 09:53:00
6:53 AM,66.9,60.1,79,30.17,10.0,ENE,8.1,-,N/A,,Overcast,60,2013-09-18 10:53:00
7:53 AM,64.9,59.0,81,30.19,-9999.0,North,-9999.0,-,N/A,,Unknown,0,2013-09-18 11:53:00
8:53 AM,68.0,60.1,76,30.19,10.0,East,10.4,-,N/A,,Clear,80,2013-09-18 12:53:00
9:53 AM,-9999,-9999,N/A,30.22,-9999.0,North,-9999.0,-,N/A,,Unknown,0,2013-09-18 13:53:00
10:53 AM,73.0,63.0,71,30.22,10.0,East,10.4,-,N/A,,Mostly Cloudy,100,2013-09-18 14:53:00
11:53 AM,73.0,63.0,71,30.22,10.0,ENE,8.1,-,N/A,,Scattered Clouds,70,2013-09-18 15:53:00
12:53 PM,75.0,63.0,66,30.20,10.0,East,8.1,-,N/A,,Partly Cloudy,90,2013-09-18 16:53:00
1:53 PM,78.1,63.0,60,30.18,10.0,East,8.1,-,N/A,,Clear,80,2013-09-18 17:53:00
2:53 PM,79.0,62.1,56,30.17,10.0,East,6.9,16.1,N/A,,Partly Cloudy,80,2013-09-18 18:53:00
3:53 PM,78.1,62.1,58,30.14,10.0,East,6.9,16.1,N/A,,Scattered Clouds,100,2013-09-18 19:53:00
4:53 PM,79.0,61.0,54,30.13,10.0,East,6.9,-,N/A,,Clear,90,2013-09-18 20:53:00
5:53 PM,78.1,61.0,56,30.13,10.0,East,8.1,-,N/A,,Clear,100,2013-09-18 21:53:00
6:53 PM,75.9,61.0,60,30.13,10.0,East,4.6,-,N/A,,Clear,100,2013-09-18 22:53:00
7:53 PM,71.1,63.0,75,30.12,10.0,NE,3.5,-,N/A,,Clear,50,2013-09-18 23:53:00
8:53 PM,66.9,64.0,90,30.14,10.0,Calm,Calm,-,N/A,,Clear,0,2013-09-19 00:53:00
9:53 PM,66.0,64.0,93,30.16,10.0,Calm,Calm,-,N/A,,Clear,0,2013-09-19 01:53:00
10:53 PM,64.9,63.0,93,30.16,10.0,Calm,Calm,-,N/A,,Clear,0,2013-09-19 02:53:00
11:53 PM,64.9,62.1,90,30.16,10.0,Calm,Calm,-,N/A,,Clear,0,2013-09-19 03:53:00